Location: Unspecified
(0.0000°N, 0.0000°E)
Time: 17:24:35
(UTC+01:00)

OTV 5 (USA 277) - Visible Passes

Search period start: 23 November 2017 00:00
Search period end: 03 December 2017 00:00
Orbit: 404 x 417 km, 43.0° (Epoch: 07 September)

Date Brightness Start Highest point End Pass type
(mag) Time Alt. Az. Time Alt. Az. Time Alt. Az.
23 Nov ? 20:18:49 10° WSW 20:21:49 50° WNW 20:21:49 50° WNW visible
24 Nov ? 19:27:43 10° SW 19:31:04 67° SE 19:33:38 16° NE visible
25 Nov ? 20:15:44 10° WNW 20:17:13 12° NW 20:18:15 11° NNW visible
26 Nov ? 06:11:56 10° N 06:14:28 20° NE 06:17:00 10° E visible
26 Nov ? 19:23:22 10° WSW 19:26:09 24° NW 19:28:56 10° N visible
27 Nov ? 05:22:44 10° NNE 05:23:25 10° NE 05:24:07 10° ENE visible
28 Nov ? 06:06:37 12° NW 06:09:34 78° SW 06:12:51 10° SE visible
29 Nov ? 05:18:26 43° NE 05:18:33 44° NE 05:21:42 10° ESE visible
30 Nov ? 06:02:59 12° W 06:04:41 16° SW 06:06:51 10° S visible
01 Dec ? 05:14:41 26° S 05:14:41 26° S 05:16:38 10° SSE visible
